Location: Couloutre
(47.4081°N, 3.2259°E)
Time: 18:33:52
(UTC+00:00)

Cosmos 1655 Rocket - Pass Details

Date: 27 February 2020
Orbit: 970 x 1006 km, 82.9° (Epoch: 28 March)

Event Time Altitude Azimuth Distance (km) Brightness Sun altitude
Rises 20:19:49 0° 352° (N) 3,747 7.4 -29.4°
Reaches altitude 10° 20:22:24 10° 355° (N) 2,791 6.7 -29.8°
Enters shadow 20:27:25 54° 20° (NNE) 1,203 4.4 -30.6°
